Temp
1 1 1 1 1 1 1 2 2 2 2 2 2 2 2 2 2 1 1 1 1 1 1 1 1 1 1 1 1 1 1 1 1 1 1 1 1 1 1 1 1 1
1 1 1 1 1 1 1 2 2 2 2 2 2 2 1 1 1 1 1 1 1 1 1 1 1 1 1 1 1 1 1 1 1 1 1 1 1 1 1 1 1 1
0 0 0 0 0 0 1 1 1 1 2 1 1 1 1 1 1 1 1 1 1 1 1 1 1 1 0 0 0 0 0 1 1 1 1 1 1 1 1 1 1 1
0 0 -0 -0 -0 0 1 1 0 1 1 1 1 1 1 1 1 1 1 0 0 0 0 0 0 0 0 0 0 0 0 0 0 0 0 0 0 1 1 1 1 1
0 -0 -0 -1 -0 -0 0 0 0 0 1 1 1 1 1 1 1 1 0 0 0 0 -0 -0 -0 -0 -0 -0 -0 -0 -0 -0 -0 -0 -0 -0 -0 0 0 0 0 0
1 0 -0 -1 -1 -0 -0 -0 -0 -0 0 0 0 1 1 1 0 0 0 0 -0 -0 -0 -0 -0 -0 -0 -0 -0 -0 -0 -0 -0 -0 -0 -0 -0 -0 -0 -0 -0 -0
1 1 0 -0 -1 -1 -1 -0 -0 -0 0 0 0 0 0 0 0 0 0 -0 -0 -0 -0 -1 -1 -1 -1 -1 -1 -1 -1 -1 -1 -0 -0 -0 -0 -0 -0 -0 -0 -0
1 1 0 -0 -1 -1 -1 -1 -0 -0 -0 0 0 -0 -0 -0 0 -0 -0 -0 -0 -0 -1 -1 -1 -1 -1 -1 -1 -1 -1 -1 -1 -1 -1 -1 -1 -0 -0 -0 -0 -0
1 1 1 0 -1 -1 -1 -1 -0 -0 -0 -0 0 -0 -0 -0 -0 -0 -0 -1 -0 -0 -1 -1 -1 -1 -1 -1 -1 -1 -1 -1 -1 -1 -1 -1 -1 -1 -0 -0 -0 -0
2 1 1 1 -0 -1 -1 -1 -1 -1 -1 -0 0 -0 -0 -0 -0 -0 -1 -1 -1 -0 -1 -1 -1 -1 -1 -1 -1 -2 -2 -2 -1 -1 -1 -1 -1 -1 -1 -0 -0 -0
2 1 1 1 -0 -1 -1 -1 -1 -1 -1 -1 -0 -0 -0 -0 -1 -1 -1 -1 -1 -1 -1 -1 -1 -1 -1 -1 -1 -1 -1 -2 -2 -1 -1 -1 -1 -1 -1 -1 -1 -1
2 2 1 1 -0 -0 -0 -1 -1 -1 -1 -1 -1 -0 -0 -1 -1 -1 -1 -1 -1 -1 -1 -1 -1 -1 -1 -1 -1 -1 -1 -1 -2 -2 -2 -1 -1 -1 -1 -1 -1 -1
2 2 1 1 0 -0 -0 -0 -1 -1 -1 -1 -1 -1 -1 -1 -1 -1 -1 -1 -1 -1 -1 -1 -1 -1 -1 -1 -1 -1 -1 -1 -1 -2 -2 -2 -1 -1 -1 -1 -1 -1
2 1 1 1 -0 -1 -1 -1 -1 -1 -1 -1 -1 -1 -1 -1 -1 -1 -1 -1 -1 -1 -1 -1 -1 -1 -1 -1 -1 -1 -1 -1 -1 -1 -2 -2 -2 -1 -1 -1 -1 -1
1 1 1 1 -0 -0 -0 -1 -1 -1 -1 -1 -1 -1 -1 -2 -1 -1 -1 -1 -1 -1 -1 -1 -1 -1 -1 -1 -1 -1 -1 -1 -1 -1 -2 -2 -2 -2 -1 -1 -1 -1
1 1 1 1 0 0 -0 -1 -1 -1 -1 -1 -1 -1 -1 -1 -1 -1 -1 -1 -1 -1 -1 -1 -1 -1 -1 -1 -1 -1 -1 -1 -1 -1 -1 -1 -1 -1 -1 -1 -1 -1
1 1 1 1 1 0 0 -0 -0 -1 -1 -1 -1 -1 -1 -1 -1 -1 -1 -1 -1 -1 -1 -1 -1 -1 -1 -1 -1 -1 -1 -1 -1 -1 -1 -1 -1 -1 -1 -1 -1 -1
0 1 0 0 0 -0 -0 -0 -0 -0 -1 -1 -1 -1 -1 -1 -1 -1 -1 -1 -1 -1 -1 -1 -1 -1 -1 -1 -1 -0 -0 -1 -1 -1 -0 -1 -1 -1 -1 -1 -1 -1
0 0 0 0 -0 -0 -1 -1 -1 -1 -1 -1 -1 -1 -1 -1 -1 -1 -1 -1 -1 -1 -1 -1 -1 -1 -1 -0 -0 -0 -0 -0 -0 -0 -0 -1 -1 -1 -1 -1 -1 -1
-0 -0 -0 -0 -0 -1 -1 -1 -1 -1 -1 -1 -1 -1 -1 -1 -1 -1 -1 -1 -1 -1 -1 -1 -1 -1 -1 -1 -1 -1 -1 -1 -1 -1 -1 -1 -1 -1 -1 -1 -1 -1
-1 -1 -1 -1 -1 -1 -1 -1 -1 -1 -1 -1 -1 -1 -1 -1 -1 -1 -1 -1 -1 -1 -1 -1 -1 -1 -1 -1 -1 -1 -1 -1 -1 -1 -1 -1 -1 -1 -1 -1 -1 -1
-1 -1 -1 -1 -1 -1 -1 -1 -1 -1 -1 -1 -1 -1 -1 -1 -1 -1 -1 -1 -2 -2 -2 -2 -2 -2 -2 -2 -2 -2 -2 -2 -2 -2 -2 -1 -1 -1 -1 -1 -1 -1
-2 -2 -2 -2 -2 -2 -2 -2 -2 -2 -2 -2 -2 -2 -2 -2 -2 -2 -2 -2 -2 -2 -2 -2 -2 -2 -2 -2 -2 -2 -2 -2 -2 -2 -2 -2 -2 -2 -2 -2 -2 -2
-3 -2 -2 -2 -3 -3 -3 -3 -3 -3 -3 -2 -2 -3 -3 -2 -2 -2 -3 -3 -3 -3 -3 -3 -3 -3 -3 -3 -3 -3 -3 -3 -3 -3 -3 -3 -3 -3 -3 -3 -3 -3
-3 -3 -3 -3 -3 -3 -3 -3 -3 -3 -3 -3 -3 -3 -3 -3 -3 -3 -3 -3 -3 -3 -3 -3 -3 -3 -3 -3 -3 -3 -3 -3 -3 -3 -3 -3 -3 -3 -3 -3 -3 -3
-4 -4 -4 -4 -4 -4 -4 -4 -3 -3 -3 -3 -3 -3 -4 -4 -4 -4 -4 -3 -3 -3 -3 -3 -3 -3 -3 -3 -3 -3 -3 -3 -3 -3 -3 -3 -3 -3 -4 -4 -4 -4
Height
3133 3133 3134 3135 3136 3137 3138 3139 3139 3138 3139 3139 3138 3137 3136 3136 3135 3135 3135 3135 3135 3135 3135 3136 3136 3136 3136 3136 3136 3136 3135 3135 3135 3135 3135 3135 3135 3135 3135 3135 3135 3136
3131 3132 3132 3133 3135 3136 3137 3138 3138 3138 3138 3139 3138 3138 3137 3137 3136 3136 3136 3135 3136 3136 3136 3137 3137 3137 3137 3137 3137 3137 3137 3137 3136 3136 3136 3136 3136 3135 3135 3136 3136 3136
3129 3130 3131 3132 3133 3135 3136 3136 3137 3138 3138 3138 3138 3138 3138 3137 3137 3137 3137 3136 3136 3137 3137 3137 3138 3138 3138 3138 3138 3138 3138 3138 3138 3138 3137 3137 3137 3136 3136 3136 3136 3136
3127 3129 3130 3131 3132 3133 3134 3134 3136 3138 3138 3138 3138 3138 3138 3138 3137 3137 3137 3137 3137 3137 3137 3138 3138 3138 3139 3139 3139 3139 3139 3139 3139 3139 3138 3138 3138 3138 3137 3137 3137 3137
3126 3127 3129 3130 3130 3131 3132 3133 3136 3137 3137 3137 3137 3138 3138 3138 3138 3138 3138 3138 3138 3138 3138 3138 3138 3138 3139 3139 3139 3139 3139 3139 3139 3139 3139 3139 3139 3138 3138 3138 3138 3138
3123 3124 3126 3127 3128 3130 3131 3132 3134 3135 3136 3136 3136 3137 3137 3138 3138 3138 3138 3138 3138 3138 3138 3138 3138 3139 3139 3139 3139 3139 3139 3139 3139 3139 3139 3139 3139 3139 3139 3138 3138 3138
3120 3121 3123 3124 3126 3128 3129 3130 3132 3134 3134 3134 3135 3136 3136 3137 3137 3137 3137 3137 3137 3138 3138 3138 3138 3139 3139 3139 3139 3139 3139 3138 3138 3138 3139 3139 3139 3139 3139 3138 3138 3138
3118 3120 3120 3122 3123 3125 3126 3127 3129 3131 3132 3133 3133 3133 3134 3135 3135 3136 3136 3136 3137 3137 3137 3137 3137 3138 3138 3138 3139 3139 3138 3138 3138 3138 3138 3138 3138 3138 3138 3138 3138 3138
3116 3117 3118 3119 3120 3122 3124 3125 3127 3129 3130 3131 3131 3131 3132 3133 3134 3134 3135 3135 3135 3136 3136 3136 3136 3136 3136 3136 3137 3137 3137 3137 3137 3137 3137 3137 3137 3137 3137 3137 3137 3137
3115 3115 3116 3117 3118 3120 3122 3123 3124 3126 3128 3129 3129 3129 3130 3131 3132 3133 3133 3134 3134 3134 3135 3135 3135 3134 3134 3134 3134 3135 3136 3136 3136 3136 3136 3136 3135 3135 3135 3135 3135 3135
3113 3114 3115 3116 3117 3118 3120 3121 3122 3124 3125 3126 3127 3127 3128 3129 3130 3130 3131 3131 3132 3132 3132 3133 3133 3133 3134 3133 3133 3133 3133 3134 3134 3134 3134 3133 3133 3133 3133 3133 3133 3134
3112 3113 3113 3114 3115 3116 3118 3119 3120 3122 3122 3123 3125 3125 3125 3126 3127 3127 3128 3128 3129 3129 3129 3130 3130 3130 3131 3132 3132 3132 3132 3131 3132 3132 3132 3131 3131 3131 3131 3132 3132 3132
3110 3111 3112 3112 3113 3114 3115 3116 3118 3119 3120 3121 3124 3123 3123 3125 3125 3126 3126 3126 3127 3128 3128 3128 3128 3127 3128 3129 3130 3131 3131 3130 3129 3130 3130 3129 3128 3128 3129 3130 3130 3130
3109 3110 3111 3111 3111 3112 3112 3113 3115 3116 3117 3119 3121 3121 3121 3122 3123 3123 3124 3124 3124 3125 3127 3127 3126 3126 3126 3127 3128 3128 3129 3128 3127 3127 3128 3128 3127 3127 3127 3128 3128 3128
3107 3108 3109 3109 3109 3110 3110 3111 3113 3114 3115 3116 3117 3118 3118 3118 3119 3121 3122 3121 3122 3122 3122 3123 3125 3124 3125 3125 3125 3125 3125 3125 3125 3125 3125 3126 3126 3125 3125 3126 3126 3125
3105 3106 3106 3107 3107 3107 3108 3109 3110 3111 3112 3113 3114 3115 3115 3114 3116 3119 3119 3118 3119 3118 3118 3120 3121 3122 3122 3122 3122 3122 3122 3122 3122 3123 3123 3123 3124 3124 3124 3124 3124 3123
3103 3103 3104 3104 3104 3105 3105 3107 3108 3108 3109 3110 3111 3112 3112 3112 3113 3114 3115 3115 3115 3116 3116 3117 3118 3118 3119 3119 3119 3119 3120 3120 3120 3120 3121 3121 3122 3122 3122 3122 3121 3121
3101 3101 3101 3101 3102 3102 3103 3105 3107 3107 3106 3107 3108 3109 3110 3110 3110 3110 3111 3112 3112 3113 3114 3114 3115 3116 3116 3117 3117 3117 3117 3117 3117 3118 3119 3119 3119 3119 3119 3119 3119 3119
3099 3099 3099 3099 3100 3100 3101 3103 3104 3105 3104 3104 3105 3106 3106 3107 3107 3108 3109 3110 3110 3111 3112 3112 3113 3114 3114 3114 3114 3114 3114 3114 3114 3115 3115 3116 3116 3116 3116 3116 3116 3116
3097 3097 3097 3098 3098 3099 3099 3101 3102 3102 3103 3103 3103 3103 3104 3105 3105 3106 3107 3108 3109 3109 3110 3110 3111 3111 3111 3111 3111 3111 3111 3111 3112 3112 3112 3112 3113 3113 3113 3113 3113 3113
3094 3095 3095 3096 3096 3097 3097 3098 3099 3100 3101 3101 3101 3102 3102 3102 3103 3104 3104 3105 3106 3106 3107 3107 3108 3108 3108 3109 3109 3109 3109 3109 3109 3109 3110 3110 3110 3110 3110 3109 3109 3109
3092 3093 3093 3093 3094 3094 3095 3095 3096 3097 3098 3099 3099 3099 3100 3100 3100 3101 3101 3102 3102 3103 3103 3104 3104 3105 3106 3106 3106 3107 3107 3107 3107 3107 3107 3107 3107 3106 3106 3106 3106 3105
3090 3091 3091 3091 3091 3092 3092 3093 3093 3094 3095 3095 3096 3096 3097 3097 3098 3098 3099 3099 3100 3100 3101 3102 3102 3103 3103 3103 3104 3104 3104 3104 3104 3104 3104 3103 3103 3103 3103 3102 3102 3102
3087 3087 3087 3088 3088 3089 3090 3090 3090 3091 3091 3092 3092 3093 3094 3095 3095 3096 3097 3097 3098 3098 3099 3100 3100 3101 3101 3101 3101 3101 3101 3101 3101 3100 3100 3100 3100 3100 3099 3099 3099 3098
3083 3083 3084 3084 3085 3086 3087 3087 3087 3087 3088 3088 3089 3090 3091 3092 3092 3093 3094 3095 3095 3096 3097 3098 3098 3098 3098 3098 3098 3098 3098 3097 3097 3097 3096 3096 3096 3096 3095 3095 3095 3095
3080 3081 3081 3082 3083 3084 3084 3085 3085 3085 3085 3085 3086 3087 3087 3088 3089 3090 3091 3092 3092 3093 3094 3094 3095 3095 3095 3095 3095 3095 3094 3094 3093 3093 3092 3092 3092 3091 3091 3091 3091 3090
Wind_Speed
20 17 14 12 11 8 7 7 3 1 2 3 5 8 10 12 13 14 14 14 14 13 12 11 10 9 9 8 8 7 7 6 5 4 4 4 4 5 4 4 3 3
21 18 17 18 17 13 10 9 5 2 1 2 3 6 8 10 11 12 13 14 15 15 14 14 14 14 13 13 12 11 10 8 7 5 4 3 3 3 3 3 3 3
23 22 21 20 19 14 13 12 7 5 3 3 2 3 5 7 8 10 11 12 12 13 13 12 13 13 13 13 13 13 13 11 10 9 7 6 4 3 3 3 3 2
24 25 23 19 19 18 18 16 11 7 6 5 4 3 3 4 5 7 7 8 8 9 9 9 9 9 10 10 10 11 11 11 11 10 10 9 8 6 6 5 5 4
25 25 22 20 22 23 22 20 15 11 11 9 7 6 4 3 3 4 4 4 5 5 5 5 6 6 6 6 7 7 8 8 8 9 9 9 8 8 8 8 7 7
23 22 21 22 25 26 25 22 17 13 15 13 10 9 7 6 5 4 4 3 2 2 2 2 2 2 2 2 3 3 4 4 5 5 5 5 6 6 7 7 7 7
18 21 23 24 26 28 28 26 20 16 18 17 14 12 10 9 8 7 6 5 4 3 2 2 2 2 3 3 2 2 2 2 3 3 3 3 4 4 5 5 6 6
16 21 27 28 28 30 31 29 24 19 19 21 18 14 13 13 12 11 10 9 9 8 6 6 6 6 6 6 6 6 5 5 5 5 5 5 5 5 5 6 6 7
15 18 24 28 30 33 32 30 26 22 22 24 21 18 17 15 14 14 13 13 13 11 8 8 9 9 9 9 9 9 9 9 8 8 8 8 8 8 8 8 8 8
15 17 19 24 30 34 33 31 28 25 24 25 24 22 20 18 17 17 16 16 16 14 11 11 11 12 12 12 12 12 12 12 13 12 12 12 11 11 11 11 11 11
13 15 16 20 28 33 34 32 29 26 26 27 27 25 23 21 21 21 21 20 20 18 15 14 14 14 15 15 15 15 14 14 15 16 16 17 16 15 14 14 13 13
12 13 14 16 23 28 31 33 31 28 29 30 29 28 27 25 26 26 25 24 23 21 19 18 17 17 17 18 18 17 16 15 16 18 19 20 20 18 16 15 15 15
11 12 13 14 18 24 29 32 31 29 31 30 28 29 28 26 26 26 26 26 25 23 21 19 18 17 16 17 18 18 17 15 16 19 21 23 23 21 17 17 18 19
12 12 13 15 17 21 26 29 28 27 28 27 26 29 29 27 27 26 25 25 25 24 23 21 18 16 15 15 16 17 17 16 16 17 19 22 25 25 23 21 22 23
16 15 16 17 18 20 21 23 24 24 23 23 25 28 30 31 30 27 24 23 23 26 28 24 19 16 15 16 16 17 18 18 17 18 20 21 23 25 25 24 25 26
19 18 18 18 19 20 20 20 20 20 20 22 23 25 27 30 29 24 22 22 23 25 24 19 16 15 16 17 18 18 19 19 19 19 20 21 22 23 24 24 26 26
19 19 19 19 20 21 21 20 19 19 20 21 22 22 23 26 26 23 21 20 19 18 15 12 13 15 17 18 18 17 17 17 17 18 18 19 19 20 20 22 23 24
20 20 21 20 20 21 21 20 18 19 21 22 22 22 21 22 22 20 17 16 16 15 12 11 13 15 16 17 17 17 17 17 17 17 18 18 19 19 20 21 22 23
20 21 21 20 20 20 20 19 19 20 21 21 21 21 22 21 20 18 17 17 16 15 14 14 16 17 18 18 18 18 19 19 20 20 20 21 21 22 22 23 24 25
20 22 21 20 20 20 20 19 19 20 21 21 21 21 21 20 20 19 19 18 18 18 19 19 20 20 20 20 21 22 22 23 23 24 24 24 25 25 26 27 27 28
21 22 21 21 21 21 21 21 21 21 22 23 23 22 22 21 22 22 21 21 20 20 20 20 20 21 21 22 22 23 24 25 26 26 27 28 28 29 29 30 30 31
23 23 23 23 24 24 24 24 24 24 24 25 24 24 24 23 23 23 23 22 21 21 20 20 20 21 21 22 23 24 25 26 27 28 29 29 30 31 31 32 32 32
25 25 26 26 26 25 24 24 25 25 25 25 24 24 24 24 24 24 23 23 22 22 22 22 22 22 23 23 24 25 25 26 28 29 30 30 31 32 32 32 32 32
28 28 28 29 28 27 26 26 26 26 25 25 25 25 25 25 25 24 24 24 24 23 23 23 23 24 24 25 25 26 27 27 28 29 30 30 31 31 32 32 32 32
30 31 31 31 30 29 28 28 28 28 28 27 27 27 27 26 25 24 24 25 25 25 25 25 26 26 27 27 27 28 28 29 29 30 31 32 32 32 32 32 32 32
28 30 31 31 29 29 29 30 30 30 30 30 29 28 28 27 26 26 26 26 27 27 27 28 29 29 30 29 30 30 31 31 31 32 32 33 33 33 33 33 33 33
Wind_Direction
248 253 254 254 263 264 264 271 278 45 50 61 72 75 75 75 77 77 75 74 71 68 65 59 54 49 44 38 32 28 26 23 19 16 11 2 358 356 354 354 347 323
241 245 245 253 267 264 248 250 246 212 156 101 88 84 83 81 81 81 79 78 76 73 68 64 62 60 57 54 52 49 48 46 43 39 35 28 11 3 1 3 7 0
236 240 244 255 265 253 232 230 226 214 198 170 146 109 96 90 85 83 80 78 79 78 73 67 64 61 58 55 54 52 51 50 49 49 48 47 46 45 47 46 44 39
240 241 244 253 255 240 225 226 231 226 216 210 202 180 135 114 95 86 81 76 76 78 76 71 66 61 56 52 49 49 47 45 44 43 43 42 41 42 45 46 48 50
246 243 241 245 249 243 235 237 246 237 221 219 216 213 200 169 138 108 101 86 72 70 69 67 65 62 55 49 47 44 43 41 36 33 33 30 28 28 29 29 30 32
248 247 243 243 243 242 241 246 255 245 226 220 215 219 218 203 196 183 166 153 113 82 55 43 33 37 33 25 32 30 30 29 23 22 19 11 8 6 6 8 8 9
249 248 247 246 241 238 241 246 251 245 232 223 213 216 221 216 212 207 197 189 180 186 204 234 266 274 280 286 283 287 303 313 318 324 327 327 325 323 325 329 330 332
244 246 246 244 238 235 237 244 249 244 235 228 218 215 221 220 219 213 205 200 198 201 211 226 242 252 261 266 266 267 272 272 273 274 276 278 279 278 280 283 289 295
241 243 241 236 232 232 235 242 247 244 239 233 222 218 221 222 224 221 215 211 209 212 225 235 237 241 247 253 259 266 270 270 268 266 265 266 264 261 258 259 262 267
248 248 245 235 229 230 233 239 243 243 241 237 227 223 224 226 229 230 228 223 218 223 240 246 243 242 242 242 247 254 262 269 272 272 270 267 263 261 259 256 255 257
256 256 257 244 231 230 233 237 240 240 241 238 231 227 226 228 233 236 235 230 227 230 241 245 247 252 253 251 249 247 250 259 266 270 270 268 265 261 258 257 256 256
257 259 263 254 240 236 238 239 240 239 240 240 236 232 230 230 234 239 240 239 237 234 235 240 245 250 254 256 257 255 251 252 258 263 266 268 267 260 253 253 256 257
251 255 263 264 253 246 244 243 243 244 246 248 246 243 241 240 241 245 249 251 250 245 243 250 257 261 261 261 262 263 261 258 259 263 264 267 270 269 265 262 262 262
241 243 251 259 259 255 250 247 247 252 253 252 248 246 249 250 246 246 251 255 257 258 258 260 266 270 270 267 264 264 264 262 261 263 265 266 269 270 270 269 266 263
236 237 239 243 247 249 247 244 246 252 252 247 245 247 252 251 246 246 253 257 260 263 262 258 260 264 263 262 263 261 260 259 259 262 265 266 266 267 267 267 266 263
238 241 239 238 239 237 234 234 239 245 246 246 248 251 253 254 253 255 260 262 263 267 265 255 251 256 256 257 260 258 257 257 258 261 263 265 266 266 266 266 267 269
243 246 242 240 238 233 228 229 234 240 243 245 247 247 249 254 257 259 259 260 262 267 266 249 241 247 251 254 256 256 256 257 258 259 261 262 264 264 265 266 268 272
248 246 242 239 237 234 232 232 236 241 246 246 245 244 244 247 251 253 254 256 258 260 259 248 244 246 247 250 254 258 261 262 261 261 261 262 263 263 264 265 268 271
245 240 237 235 234 234 234 233 232 235 240 241 239 237 238 240 242 244 244 245 247 249 248 245 245 246 247 251 256 260 264 265 265 266 267 268 268 268 268 269 270 272
238 232 230 231 231 231 231 230 227 224 225 227 227 229 232 235 237 239 240 241 243 245 246 246 248 250 253 256 258 261 263 264 266 267 268 269 270 270 272 273 274 275
231 227 228 230 231 231 229 228 227 223 223 225 227 230 235 238 241 244 246 249 251 252 252 252 253 254 256 258 259 261 263 264 266 268 268 269 271 273 274 275 276 278
225 227 231 231 231 232 232 232 232 232 232 233 233 236 239 242 246 249 252 255 256 257 257 257 257 258 258 260 261 263 265 266 268 269 271 272 274 275 276 277 278 278
228 228 231 232 231 232 235 236 238 238 237 237 237 238 240 242 246 248 251 254 255 257 259 260 262 264 265 266 268 269 270 271 272 273 274 274 275 275 276 277 277 278
232 229 228 229 229 230 232 235 237 238 238 238 238 239 240 242 245 247 250 253 256 259 262 264 267 269 270 272 273 274 275 276 276 277 276 276 276 276 276 276 277 277
234 232 231 230 228 228 228 230 232 233 234 236 237 238 240 242 244 247 251 254 257 261 264 266 268 269 270 272 273 275 276 277 278 278 278 278 278 277 277 277 277 277
250 246 241 237 235 234 234 234 233 233 233 234 235 236 238 241 244 247 251 255 258 261 264 266 267 267 269 270 272 273 274 275 276 277 278 278 278 278 278 277 278 278